UAL58 KLAX-EDDF

Flight info

Callsign UAL58
Flight time N/A
Altitude 33000
Route OSHNN1 BEALE Q842 WINEN DCT MLF DCT KU66Q DCT KU75S DCT KD84U DCT KU06W DCT KP18Y DCT AMENU/N0489F350 DCT YYQ DCT YZS DCT 65N080W 67N070W/M083F350 DCT CANEL/M083F370 DCT 69N050W 70N040W 70N030W 69N020W 67N010W DCT GUNPA/N0477F370 DCT ATTUS DCT RIMET/N0477F310 T157 KOKEB/N0418F230 T157 KERAX KERAX5A
Aircraft B772/H-SDE2E3FGHIJ5LORVWXY/LB1D1

Departure

Time 2026-04-24 23:14
Airport Los Angeles International Airport (KLAX)

Arrival

Time N/A
Airport Frankfurt Main Airport (EDDF)
Time Latitude Longitude Altitude Speed Heading
2026-04-24 22:45 33.94100 -118.41084 132 ft 0 kts 83°
2026-04-24 23:01 33.94099 -118.41094 132 ft 2 kts 82°
2026-04-24 23:02 33.94097 -118.41112 132 ft 2 kts 83°
2026-04-24 23:02 33.94095 -118.41130 131 ft 2 kts 83°
2026-04-24 23:02 33.94093 -118.41148 131 ft 2 kts 83°
2026-04-24 23:02 33.94093 -118.41166 131 ft 2 kts 103°
2026-04-24 23:03 33.94098 -118.41183 131 ft 2 kts 127°
2026-04-24 23:03 33.94109 -118.41195 131 ft 2 kts 148°
2026-04-24 23:03 33.94122 -118.41202 131 ft 1 kts 170°
2026-04-24 23:03 33.94128 -118.41203 131 ft 0 kts 174°
2026-04-24 23:07 33.94091 -118.41198 131 ft 10 kts 174°
2026-04-24 23:07 33.93993 -118.41183 132 ft 15 kts 173°
2026-04-24 23:07 33.93894 -118.41169 132 ft 13 kts 173°
2026-04-24 23:07 33.93805 -118.41155 133 ft 12 kts 163°
2026-04-24 23:08 33.93769 -118.41086 133 ft 9 kts 84°
2026-04-24 23:08 33.93777 -118.41003 133 ft 10 kts 83°
2026-04-24 23:08 33.93787 -118.40903 133 ft 13 kts 83°
2026-04-24 23:08 33.93800 -118.40781 133 ft 15 kts 82°
2026-04-24 23:09 33.93814 -118.40640 132 ft 18 kts 83°
2026-04-24 23:09 33.93830 -118.40480 131 ft 20 kts 83°
2026-04-24 23:09 33.93846 -118.40326 129 ft 22 kts 84°
2026-04-24 23:09 33.93866 -118.40136 126 ft 24 kts 83°
2026-04-24 23:10 33.93887 -118.39919 123 ft 27 kts 83°
2026-04-24 23:10 33.93911 -118.39683 120 ft 29 kts 83°
2026-04-24 23:10 33.93937 -118.39430 117 ft 30 kts 83°
2026-04-24 23:10 33.93963 -118.39185 115 ft 29 kts 83°
2026-04-24 23:11 33.93986 -118.38942 113 ft 28 kts 83°
2026-04-24 23:11 33.94009 -118.38726 112 ft 28 kts 83°
2026-04-24 23:11 33.94029 -118.38535 111 ft 27 kts 82°
2026-04-24 23:11 33.94053 -118.38312 110 ft 26 kts 84°
2026-04-24 23:12 33.94070 -118.38133 110 ft 14 kts 83°
2026-04-24 23:12 33.94063 -118.38028 110 ft 11 kts 132°
2026-04-24 23:12 33.94003 -118.38008 110 ft 7 kts 210°
2026-04-24 23:12 33.93983 -118.38055 110 ft 9 kts 258°
2026-04-24 23:13 33.93956 -118.38309 111 ft 58 kts 263°
2026-04-24 23:13 33.93879 -118.39051 114 ft 118 kts 263°
2026-04-24 23:13 33.93757 -118.40250 129 ft 169 kts 263°
2026-04-24 23:13 33.93613 -118.41766 445 ft 185 kts 264°
2026-04-24 23:14 33.93478 -118.43247 1226 ft 179 kts 262°
2026-04-24 23:14 33.93317 -118.44676 1524 ft 178 kts 261°
2026-04-24 23:14 33.92939 -118.46141 1516 ft 188 kts 238°
2026-04-24 23:14 33.92142 -118.47433 1529 ft 200 kts 232°
2026-04-24 23:15 33.91232 -118.48811 1544 ft 215 kts 232°
2026-04-24 23:15 33.90258 -118.50249 1588 ft 230 kts 230°
2026-04-24 23:15 33.88990 -118.51489 1755 ft 245 kts 203°
2026-04-24 23:15 33.87293 -118.51857 2122 ft 253 kts 183°
2026-04-24 23:16 33.85518 -118.51896 2612 ft 257 kts 182°
2026-04-24 23:16 33.83714 -118.51919 3082 ft 261 kts 182°
2026-04-24 23:16 33.81879 -118.51940 3586 ft 263 kts 182°
2026-04-24 23:16 33.80041 -118.51962 4069 ft 266 kts 182°
2026-04-24 23:17 33.78196 -118.51984 4547 ft 269 kts 182°
2026-04-24 23:17 33.76321 -118.52007 5034 ft 271 kts 182°
2026-04-24 23:17 33.74406 -118.52029 5509 ft 274 kts 182°
2026-04-24 23:17 33.72497 -118.52026 5970 ft 277 kts 176°
2026-04-24 23:18 33.70656 -118.51345 6390 ft 282 kts 149°
2026-04-24 23:18 33.69255 -118.49723 6841 ft 285 kts 122°
2026-04-24 23:18 33.68394 -118.47573 7305 ft 288 kts 112°
2026-04-24 23:18 33.67705 -118.45310 7725 ft 292 kts 110°
2026-04-24 23:19 33.67032 -118.43008 8220 ft 293 kts 110°
2026-04-24 23:19 33.66355 -118.40708 8658 ft 296 kts 110°
2026-04-24 23:19 33.65661 -118.38363 9065 ft 300 kts 111°
2026-04-24 23:19 33.64958 -118.35995 9497 ft 303 kts 111°
2026-04-24 23:20 33.64498 -118.33533 9917 ft 306 kts 95°
2026-04-24 23:20 33.64435 -118.30969 10187 ft 316 kts 90°
2026-04-24 23:20 33.64443 -118.28244 10234 ft 335 kts 90°
2026-04-24 23:20 33.64456 -118.25378 10313 ft 353 kts 89°
2026-04-24 23:21 33.64735 -118.22377 10424 ft 370 kts 77°
2026-04-24 23:21 33.65541 -118.19385 10551 ft 386 kts 65°
2026-04-24 23:21 33.66888 -118.16554 10859 ft 396 kts 53°
2026-04-24 23:21 33.68708 -118.14072 11436 ft 397 kts 41°
2026-04-24 23:22 33.70871 -118.12009 12000 ft 399 kts 34°
2026-04-24 23:22 33.73133 -118.10041 12578 ft 403 kts 33°
2026-04-24 23:22 33.75414 -118.08047 13135 ft 408 kts 33°
2026-04-24 23:22 33.77733 -118.06001 13679 ft 414 kts 34°
2026-04-24 23:23 33.80071 -118.03925 14247 ft 419 kts 33°
2026-04-24 23:23 33.82414 -118.01836 14864 ft 422 kts 33°
2026-04-24 23:23 33.84773 -117.99726 15421 ft 427 kts 33°
2026-04-24 23:23 33.87152 -117.97593 15981 ft 430 kts 33°
2026-04-24 23:24 33.89573 -117.95418 16500 ft 435 kts 33°
2026-04-24 23:24 33.92005 -117.93225 17013 ft 440 kts 33°
2026-04-24 23:24 33.94449 -117.90996 17555 ft 443 kts 33°
2026-04-24 23:24 33.96937 -117.88721 18054 ft 447 kts 32°
2026-04-24 23:25 33.99415 -117.86455 18567 ft 451 kts 32°
2026-04-24 23:25 34.01920 -117.84163 19082 ft 454 kts 32°
2026-04-24 23:25 34.04446 -117.81849 19545 ft 458 kts 32°
2026-04-24 23:25 34.06997 -117.79510 20029 ft 461 kts 32°
2026-04-24 23:26 34.09388 -117.76947 20452 ft 471 kts 42°
2026-04-24 23:26 34.11550 -117.73923 20889 ft 478 kts 46°
2026-04-24 23:26 34.13677 -117.70770 21301 ft 482 kts 46°
2026-04-24 23:26 34.15798 -117.67614 21701 ft 486 kts 46°
2026-04-24 23:27 34.17981 -117.64365 22112 ft 490 kts 46°
2026-04-24 23:27 34.20134 -117.61160 22550 ft 492 kts 46°
2026-04-24 23:27 34.22292 -117.57945 22966 ft 495 kts 45°
2026-04-24 23:27 34.24460 -117.54715 23345 ft 499 kts 45°
2026-04-24 23:28 34.26668 -117.51424 23743 ft 503 kts 46°
2026-04-24 23:28 34.28878 -117.48125 24164 ft 505 kts 46°
2026-04-24 23:28 34.31087 -117.44827 24492 ft 510 kts 46°
2026-04-24 23:28 34.33329 -117.41476 24814 ft 514 kts 46°
2026-04-24 23:29 34.35587 -117.38098 25296 ft 515 kts 46°